Regional Weather Roundup
Issued by NWS

Home | Current Version | Previous Version | Graphics & Text | Print | Product List | Glossary On
Versions: 1 2 3 4 5 6 7 8 9 10 11 12 13 14 15 16 17 18 19 20 21 22 23 24 25 26 27 28 29 30 31 32 33 34 35 36 37 38 39 40 41 42 43 44 45 46 47 48 49 50
000
ASUS45 KCYS 281210
RWRWY

WYOMING REGIONAL WEATHER ROUNDUP
NATIONAL WEATHER SERVICE CHEYENNE WY
600 AM MDT TUE JUL 28 2015

NOTE:  "FAIR" INDICATES FEW OR NO CLOUDS BELOW 12,000 FEET
WITH NO SIGNIFICANT WEATHER AND/OR OBSTRUCTIONS TO VISIBILITY.

WYZ001-281300-
YELLOWSTONE NATIONAL PARK

CITY           SKY/WX    TMP DP  RH WIND       PRES   REMARKS
LK YELLOWSTONE   N/A     31  29  92 CALM      30.30R
6HR MIN TEMP:  30; 6HR MAX TEMP:  35;

W YELLOWSTONE  NOT AVBL

$$
WYZ002>013-054>058-071-098>099-281300-
NORTHERN WYOMING

CITY           SKY/WX    TMP DP  RH WIND       PRES   REMARKS
JACKSON        FAIR      34  34 100 CALM      30.29R
CODY           FAIR      46  32  57 W6        30.12R
GREYBULL       FAIR      48  43  82 SE3       30.08R
6HR MIN TEMP:  47; 6HR MAX TEMP:  56;

WORLAND        FAIR      45  40  82 S8        30.09R
6HR MIN TEMP:  43; 6HR MAX TEMP:  50;

SHERIDAN       FAIR      49  42  77 S5        30.03R
6HR MIN TEMP:  47; 6HR MAX TEMP:  53;

BUFFALO        FAIR      46  43  89 S9        30.07R
6HR MIN TEMP:  45; 6HR MAX TEMP:  50;

GILLETTE       FAIR      45  41  86 W8        30.04R
6HR MIN TEMP:  44; 6HR MAX TEMP:  51;

HULETT         FAIR      50  43  76 SW13G20   30.03R
NEWCASTLE      FAIR      46  43  87 N8        30.06R

$$
WYZ014>020-022>026-101>103-281300-
CENTRAL WYOMING

CITY           SKY/WX    TMP DP  RH WIND       PRES   REMARKS
BIG PINEY      FAIR      32  25  75 CALM      30.29R
6HR MIN TEMP:  29; 6HR MAX TEMP:  45;

PINEDALE       FAIR      30  28  93 W5        30.30R WCI  25
DUBOIS         FAIR      37  28  70 N14G23    30.21S WCI  29
LANDER         FAIR      43  28  55 W7        30.16R
6HR MIN TEMP:  39; 6HR MAX TEMP:  59;

RIVERTON       FAIR      48  28  46 W15       30.15R
6HR MIN TEMP:  47; 6HR MAX TEMP:  55;

CASPER         FAIR      46  28  49 SW9       30.12R
6HR MIN TEMP:  44; 6HR MAX TEMP:  55;

DOUGLAS        FAIR      47  30  51 W9        30.11R
6HR MIN TEMP:  46; 6HR MAX TEMP:  59;


$$
WYZ021-027>030-104>119-281300-
SOUTHERN WYOMING

CITY           SKY/WX    TMP DP  RH WIND       PRES   REMARKS
EVANSTON       FAIR      43  29  57 CALM      30.32R
6HR MIN TEMP:  42; 6HR MAX TEMP:  50;

KEMMERER       FAIR      37  27  65 W3        30.31R
FORT BRIDGER   SUNNY     43  32  65 W9        30.33R
ROCK SPRINGS   FAIR      47  22  37 SW13      30.28R
6HR MIN TEMP:  47; 6HR MAX TEMP:  56;

DIXON          FAIR      39  32  75 CALM      30.31R
RAWLINS        FAIR      45  28  51 SW12      30.25R
6HR MIN TEMP:  45; 6HR MAX TEMP:  55;

SARATOGA       FAIR      45  30  57 SW8       30.28R
LARAMIE        FAIR      46  29  51 CALM      30.23R
6HR MIN TEMP:  43; 6HR MAX TEMP:  58;

CHEYENNE       FAIR      56  29  35 NW18G31   30.15R
6HR MIN TEMP:  56; 6HR MAX TEMP:  66; 6HR PCP: TRACE;

TORRINGTON     FAIR      52  46  80 CALM      30.05R
6HR MIN TEMP:  51; 6HR MAX TEMP:  73;

PINE BLUFFS    FAIR      55  32  41 NW12G17   30.10R

$$



USA.gov is the U.S. government's official web portal to all federal, state and local government web resources and services.